Flag for India Weather past 2 weeks in Kãnpur, Uttar Pradesh, India

Now
45 °F

Fog.


Feels Like: 45 °F
Forecast: 45 / 66 °F
Wind: 2 mph from North

Location: Lucknow / Amausi

Current Time: Dec 26, 2014 at 8:43:45 AM

Latest Report: Dec 26, 2014 at 8:00 AM


Visibility: 0 mi

Pressure: 30.04 "Hg

Humidity: 93%

Dew point: 43 °F

Location of KãnpurLocation

Historic Weather in Kãnpur — Graph

°F

Kãnpur temperature yesterday

Maximum temperature yesterday: 70 °F (at 2:30 PM)
Minimum temperature yesterday: 43 °F (at 5:00 AM)
Average temperature yesterday: 58 °F

Past Weeks' High & Low Weather Summary

 TemperatureHumidityPressure
High73 °F (Dec 11, 3:00 PM)100% (Dec 12, 5:30 AM)30.24 "Hg (Dec 12, 5:30 AM)
Low36 °F (Dec 24, 7:00 AM)25% (Dec 11, 1:00 PM)29.95 "Hg (Dec 11, 4:00 PM)
Average57 °F78%30.06 "Hg
* Reported Dec 11 6:30 AM — Dec 26 7:00 AM, Kãnpur, Weather by CustomWeather, © 2014

Note: Actual official high and low records may vary slightly from our data, if they occured in-between our weather recording intervals... More about our weather records

Advertising

Kãnpur weather history for previous 24 hours

 ConditionsComfort  
Time TempWeatherWind HumidityBarometerVisibility
7:00 AM
Dec 26
45 °FFog.No wind93%30.01 "Hg0 mi
5:30 AM45 °FFog.No wind100%29.98 "Hg1 mi
4:00 AM52 °FFog.No wind82%29.98 "Hg1 mi
3:00 AM52 °FFog.No wind82%30.01 "Hg1 mi
2:00 AM52 °FFog.No wind94%30.01 "Hg1 mi
1:00 AM54 °FFog.No wind88%30.01 "Hg1 mi
12:00 AM54 °FFog.No wind88%30.04 "Hg1 mi
11:00 PM
Dec 25
55 °FFog.2 mph72%30.04 "Hg1 mi
10:00 PM55 °FFog.2 mph72%30.04 "Hg1 mi
9:00 PM57 °FFog.2 mph82%30.04 "Hg1 mi
8:00 PM57 °FHaze.2 mph67%30.04 "Hg1 mi
7:30 PM59 °FHaze.2 mph63%30.04 "Hg1 mi
7:00 PM61 °FHaze.2 mph59%30.04 "Hg1 mi
6:30 PM63 °FHaze.2 mph59%30.01 "Hg1 mi
6:00 PM64 °FHaze.2 mph56%30.01 "Hg1 mi
5:30 PM66 °FHaze.2 mph52%30.01 "Hg1 mi
4:30 PM68 °FHaze.2 mph43%30.01 "Hg2 mi
4:00 PM68 °FHaze.2 mph43%30.01 "Hg2 mi
3:30 PM70 °FHaze.3 mph38%30.01 "Hg2 mi
3:00 PM70 °FHaze.3 mph35%30.01 "Hg2 mi
2:30 PM70 °FHaze.3 mph35%30.01 "Hg2 mi
1:30 PM68 °FHaze.3 mph40%30.04 "Hg1 mi
1:00 PM68 °FHaze.2 mph40%30.07 "Hg1 mi
12:30 PM68 °FHaze.No wind43%30.07 "Hg1 mi
12:00 PM66 °FHaze.No wind46%30.09 "Hg1 mi
10:30 AM57 °FFog.No wind67%30.12 "Hg1 mi
10:00 AM57 °FFog.No wind67%30.15 "Hg1 mi
Weather by CustomWeather, © 2014

See weather overviewHow to use our weather pages